Main page
Satellite images Climate Cyclones Lightning AirportsFAQ Languages Contact Newsletter About
Weather : Europe Africa North America South America Asia Australia-Oceania Others

5361, Hat Yai, Hat Yai International Airport

latitude: , longitude: Thailand, elevation: 06-55N m


METAR: VTSS 221030Z 05012KT 9999 VCSH SCT020 BKN100 30/24 Q1005 NOSIG